This is the latest recevied weather packets stored in our database for station/object N4DWK. If no packets are shown the sender has not sent any weather packets the latest 10 day(s).
| Time | Temp. | Humidity | Pressure | Rain* | Wind** | Luminosity | Snow |
|---|---|---|---|---|---|---|---|
| 1778188806 | 11.67° C | 92% | 1010.2 hPa | 2.29 mm | - | 58 W/m² | - |
| 1778188506 | 11.67° C | 92% | 1010.2 hPa | 2.54 mm | - | 72 W/m² | - |
| 1778188205 | 11.67° C | 92% | 1010.3 hPa | 3.05 mm | - | 95 W/m² | - |
| 1778187905 | 11.67° C | 91% | 1010.2 hPa | 3.81 mm | - | 51 W/m² | - |
| 1778187605 | 11.67° C | 91% | 1010.1 hPa | 4.32 mm | - | 56 W/m² | - |
| 1778187305 | 11.67° C | 91% | 1010.4 hPa | 6.86 mm | - | 54 W/m² | - |
| 1778187006 | 12.22° C | 91% | 1010.5 hPa | 7.11 mm | - | 83 W/m² | - |
| 1778186706 | 12.22° C | 91% | 1010.6 hPa | 7.11 mm | - | 42 W/m² | - |
| 1778186405 | 12.22° C | 91% | 1010.9 hPa | 6.86 mm | - | 32 W/m² | - |
| 1778186106 | 12.22° C | 90% | 1010.8 hPa | 6.35 mm | - | 44 W/m² | - |
| 1778185806 | 12.22° C | 90% | 1010.4 hPa | 6.1 mm | - | 21 W/m² | - |
| 1778185506 | 12.22° C | 89% | 1010.9 hPa | 5.59 mm | - | 21 W/m² | - |
| 1778185205 | 12.22° C | 88% | 1010.5 hPa | 5.08 mm | - | 18 W/m² | - |
| 1778184905 | 12.78° C | 88% | 1010.6 hPa | 4.83 mm | - | 19 W/m² | - |
| 1778184605 | 12.78° C | 87% | 1010.6 hPa | 4.32 mm | - | 21 W/m² | - |
| 1778184305 | 12.78° C | 87% | 1010.6 hPa | 3.56 mm | - | 21 W/m² | - |
| 1778184006 | 12.78° C | 85% | 1010.7 hPa | 3.05 mm | - | 23 W/m² | - |
| 1778183705 | 12.78° C | 84% | 1010.7 hPa | 0.51 mm | - | 23 W/m² | - |
| 1778183405 | 12.78° C | 83% | 1011.1 hPa | 0 mm | - | 25 W/m² | - |
| 1778183105 | 12.78° C | 82% | 1010.6 hPa | 0 mm | - | 21 W/m² | - |
| 1778182806 | 13.33° C | 82% | 1010.6 hPa | 0 mm | - | 33 W/m² | - |
| 1778182505 | 13.33° C | 82% | 1010.8 hPa | 0 mm | - | 42 W/m² | - |
| 1778182205 | 13.33° C | 82% | 1010.8 hPa | 0 mm | - | 39 W/m² | - |
| 1778181906 | 13.33° C | 81% | 1010.9 hPa | 0 mm | - | 42 W/m² | - |
| 1778181605 | 13.33° C | 80% | 1010.9 hPa | 0 mm | - | 67 W/m² | - |
* Rain latest hour (hover to see other rain measurements)
** Current wind speed in m/s (hover to see current wind gust speed)